Location: Dugenta
(41.1333°N, 14.4500°E)
Time: 15:00:40
(UTC+00:00)

Meteor 1-5 Rocket - Pass Details

Date: 03 March 2021
Orbit: 789 x 915 km, 81.2° (Epoch: 21 April)

Event Time Altitude Azimuth Distance (km) Brightness Sun altitude
Rises 18:28:58 0° 189° (S) 3,278 7.3 -18.4°
Reaches altitude 10° 18:31:18 10° 190° (S) 2,360 6.5 -18.8°
Maximum altitude 18:36:37 86° 278° (W) 817 4.1 -19.8°
Drops below altitude 10° 18:42:08 10° 9° (N) 2,439 6.6 -20.8°
Sets 18:44:35 0° 10° (N) 3,396 7.4 -21.3°
